Regional Weather Roundup
Issued by NWS

Home | Current Version | Previous Version | Graphics & Text | Print | Product List | Glossary On
Versions: 1 2 3 4 5 6 7 8 9 10 11 12 13 14 15 16 17 18 19 20 21 22 23 24 25 26 27 28 29 30 31 32 33 34 35 36 37 38 39 40 41 42 43 44 45 46 47 48 49 50
000
ASUS43 KFSD 270810
RWRSD

WEATHER ROUNDUP FOR SOUTH DAKOTA
NATIONAL WEATHER SERVICE SIOUX FALLS SD
300 AM CDT TUE JUN 27 2017

NOTE: "FAIR" INDICATES FEW OR NO CLOUDS BELOW 12,000 FEET WITH NO
SIGNIFICANT WEATHER AND/OR OBSTRUCTIONS TO VISIBILITY.


SDZ001>005-009-010-012>017-270900-
NORTHWEST AND NORTH CENTRAL SOUTH DAKOTA

CITY           SKY/WX    TMP DP  RH WIND       PRES   REMARKS
BUFFALO          N/A     60  39  45 SE16      29.79F
FAITH            N/A     58  37  45 S23G29    29.92F
MOBRIDGE       CLEAR     61  38  42 S17       29.97F
$$

SDZ012>016-024>037-041>051-057-063-072>074-270900-
SOUTHWEST AND SOUTH CENTRAL SOUTH DAKOTA

CITY           SKY/WX    TMP DP  RH WIND       PRES   REMARKS
RAPID CTY ARPT MOCLDY    56  41  57 SE9       29.94F
PIERRE         PTCLDY    56  40  55 SE12      30.00F
CUSTER         CLOUDY    55  36  48 SW5       30.06F
ELLSWORTH AFB  MOCLDY    60  40  48 S17       29.92F
PHILIP         PTCLDY    59  41  51 SE6       29.96F
PINE RIDGE     CLEAR     63  45  51 S26G35    29.97F
SPEARFISH      FAIR      73  45  35 S23G33    29.84F
WINNER         FAIR      59  41  51 S20       30.05F
$$

SDZ004>011-016>023-039-040-270900-
NORTHEAST SOUTH DAKOTA

CITY           SKY/WX    TMP DP  RH WIND       PRES   REMARKS
ABERDEEN       CLEAR     47  41  80 S10       30.04F
WATERTOWN      CLEAR     50  40  68 SE7       30.08F
BROOKINGS      CLEAR     49  42  77 SE7       30.11F
SISSETON         N/A     50  41  71 S8        30.05F
$$

SDZ017-020-022-023-036>040-048>070-270900-
SOUTHEAST SOUTH DAKOTA

CITY           SKY/WX    TMP DP  RH WIND       PRES   REMARKS
SIOUX FALLS    CLEAR     49  46  90 CALM      30.11F
HURON          CLEAR     51  41  68 SE8       30.06F
CHAMBERLAIN    CLEAR     51  42  72 E8        30.05F
MITCHELL       CLEAR     53  42  66 S7        30.08F
YANKTON        CLEAR     52  43  71 CALM      30.11F
$$

ABBREVIATIONS USED IN REMARKS
   TC - TEMPERATURE IN CELSIUS
  WCI - WIND CHILL INDEX
   HX - HEAT INDEX
  VSB - VISIBILITY




USA.gov is the U.S. government's official web portal to all federal, state and local government web resources and services.